GW3424 Weather Reports


Display with metric or nautical units.
time (UTC)temp
F
wind
direction
speed
MPH
gust
MPH
rain 1hr
in
rain 24hr
in
rain mn
in
humidity
%
barometer
mb
20260508014545 93 360 6.0 16.0 0.00 0.00 0.00 9 972.3
20260508014044 93 360 8.0 16.0 0.00 0.00 0.00 9 972.4
20260508013544 93 360 5.0 11.0 0.00 0.00 0.00 9 972.3
20260508013044 93 360 7.0 11.0 0.00 0.00 0.00 9 972.2
20260508012544 94 264 5.0 11.0 0.00 0.00 0.00 9 972.3
20260508012044 94 254 7.0 12.0 0.00 0.00 0.00 9 972.2
20260508011545 94 234 7.0 12.0 0.00 0.00 0.00 9 972.3
20260508011045 94 244 8.0 12.0 0.00 0.00 0.00 9 972.3
20260508010545 94 263 5.0 11.0 0.00 0.00 0.00 9 972.2
20260508010050 94 271 8.0 11.0 0.00 0.00 0.00 9 972.3
20260508005547 94 225 5.0 11.0 0.00 0.00 0.00 9 972.3
20260508005045 94 227 6.0 12.0 0.00 0.00 0.00 9 972.2
20260508004545 94 227 6.0 12.0 0.00 0.00 0.00 9 972.3
20260508004044 94 235 8.0 12.0 0.00 0.00 0.00 9 972.3
20260508003544 94 218 7.0 13.0 0.00 0.00 0.00 9 972.3
20260508003048 95 266 4.0 13.0 0.00 0.00 0.00 9 972.4
20260508002544 95 238 5.0 13.0 0.00 0.00 0.00 9 972.3
20260508002044 94 243 4.0 13.0 0.00 0.00 0.00 8 972.4
20260508001545 94 227 2.0 12.0 0.00 0.00 0.00 9 972.2
20260508001045 94 252 7.0 12.0 0.00 0.00 0.00 9 972.3
20260508000545 94 297 5.0 13.0 0.00 0.00 0.00 9 972.3
20260508000044 94 300 7.0 13.0 0.00 0.00 0.00 9 972.4
20260507235544 95 286 5.0 11.0 0.00 0.00 0.00 9 972.3
20260507235044 95 288 5.0 11.0 0.00 0.00 0.00 9 972.4
20260507234546 95 278 5.0 9.0 0.00 0.00 0.00 9 972.4
20260507234046 94 335 2.0 9.0 0.00 0.00 0.00 9 972.4
20260507233544 94 302 3.0 12.0 0.00 0.00 0.00 8 972.6
20260507233044 94 281 8.0 12.0 0.00 0.00 0.00 8 972.5
20260507232544 94 313 2.0 11.0 0.00 0.00 0.00 9 972.5
20260507232044 94 273 8.0 13.0 0.00 0.00 0.00 9 972.6
20260507231547 94 314 9.0 14.0 0.00 0.00 0.00 8 972.6
20260507231046 94 288 9.0 16.0 0.00 0.00 0.00 8 972.6
20260507230548 95 332 11.0 19.0 0.00 0.00 0.00 8 972.5
20260507230045 96 293 11.0 19.0 0.00 0.00 0.00 8 972.5
20260507225544 96 230 7.0 11.0 0.00 0.00 0.00 8 972.7
20260507225045 96 252 1.0 3.0 0.00 0.00 0.00 8 972.8
20260507224547 95 252 0.0 4.0 0.00 0.00 0.00 8 972.8
20260507224044 94 257 2.0 10.0 0.00 0.00 0.00 8 972.7
20260507223544 94 303 6.0 10.0 0.00 0.00 0.00 8 972.9
20260507223045 95 323 5.0 14.0 0.00 0.00 0.00 8 972.9
20260507222544 95 298 8.0 14.0 0.00 0.00 0.00 8 972.9
20260507222044 96 298 7.0 13.0 0.00 0.00 0.00 7 972.9
20260507221544 96 260 0.0 13.0 0.00 0.00 0.00 7 973.1
20260507221049 96 238 7.0 12.0 0.00 0.00 0.00 7 973.2
20260507220544 96 229 4.0 11.0 0.00 0.00 0.00 7 973.2
20260507220045 96 219 3.0 11.0 0.00 0.00 0.00 7 973.4
20260507215545 95 312 1.0 7.0 0.00 0.00 0.00 7 973.4
20260507215045 94 61 3.0 10.0 0.00 0.00 0.00 7 973.5
20260507214549 94 294 4.0 10.0 0.00 0.00 0.00 8 973.6
20260507214044 93 59 5.0 10.0 0.00 0.00 0.00 8 973.6
20260507213544 94 315 4.0 12.0 0.00 0.00 0.00 8 973.7
20260507213044 93 292 4.0 12.0 0.00 0.00 0.00 8 973.8
20260507212544 93 320 6.0 15.0 0.00 0.00 0.00 7 973.9
20260507212044 93 355 6.0 15.0 0.00 0.00 0.00 7 973.9
20260507211547 94 315 3.0 14.0 0.00 0.00 0.00 7 973.9
20260507211045 95 325 7.0 14.0 0.00 0.00 0.00 7 973.9
20260507210544 96 229 3.0 11.0 0.00 0.00 0.00 7 974.1
20260507210044 96 213 6.0 11.0 0.00 0.00 0.00 7 974.1
20260507205544 95 228 1.0 9.0 0.00 0.00 0.00 8 974.2
20260507205047 95 241 6.0 9.0 0.00 0.00 0.00 8 974.2
20260507204545 95 207 5.0 9.0 0.00 0.00 0.00 8 974.4
20260507204047 95 242 3.0 11.0 0.00 0.00 0.00 8 974.6
20260507203545 95 211 5.0 11.0 0.00 0.00 0.00 9 974.5
20260507203048 94 209 5.0 21.0 0.00 0.00 0.00 9 974.6
20260507202544 92 191 8.0 21.0 0.00 0.00 0.00 9 974.8
20260507202044 93 78 2.0 12.0 0.00 0.00 0.00 8 974.8
20260507201545 93 60 4.0 10.0 0.00 0.00 0.00 9 974.8
20260507201044 93 300 5.0 9.0 0.00 0.00 0.00 9 974.9
20260507200544 92 99 1.0 9.0 0.00 0.00 0.00 9 975.1
20260507200045 91 360 3.0 10.0 0.00 0.00 0.00 10 975.2
20260507195544 91 355 5.0 10.0 0.00 0.00 0.00 9 975.3
20260507195046 91 23 2.0 9.0 0.00 0.00 0.00 9 975.3
20260507194547 91 360 2.0 9.0 0.00 0.00 0.00 10 975.5
20260507194047 91 314 3.0 11.0 0.00 0.00 0.00 10 975.7
20260507193544 91 27 3.0 11.0 0.00 0.00 0.00 10 975.7
20260507193044 91 63 6.0 11.0 0.00 0.00 0.00 10 975.8
20260507192544 91 26 3.0 11.0 0.00 0.00 0.00 10 975.9
20260507192045 92 70 5.0 11.0 0.00 0.00 0.00 10 975.9
20260507191544 92 180 2.0 13.0 0.00 0.00 0.00 10 976.0
20260507191044 91 74 3.0 8.0 0.00 0.00 0.00 10 976.0
20260507190544 91 44 2.0 7.0 0.00 0.00 0.00 11 976.0
20260507190045 90 360 2.0 13.0 0.00 0.00 0.00 11 976.1
20260507185544 91 360 9.0 13.0 0.00 0.00 0.00 11 976.2
20260507185044 91 159 4.0 12.0 0.00 0.00 0.00 11 976.4
20260507184544 91 148 6.0 12.0 0.00 0.00 0.00 11 976.3
20260507184048 90 360 3.0 10.0 0.00 0.00 0.00 11 976.4
20260507183544 89 360 6.0 13.0 0.00 0.00 0.00 12 976.6
20260507183049 88 360 5.0 13.0 0.00 0.00 0.00 12 976.7
20260507182544 89 360 7.0 13.0 0.00 0.00 0.00 11 976.6
20260507182044 90 360 5.0 13.0 0.00 0.00 0.00 11 976.7
20260507181545 89 360 4.0 12.0 0.00 0.00 0.00 11 976.8
20260507181045 89 360 5.0 13.0 0.00 0.00 0.00 11 977.0
20260507180544 89 360 5.0 11.0 0.00 0.00 0.00 12 976.9
20260507180053 89 360 4.0 10.0 0.00 0.00 0.00 11 976.9
20260507175544 87 360 3.0 13.0 0.00 0.00 0.00 11 977.0
20260507175045 87 360 4.0 13.0 0.00 0.00 0.00 11 977.1
20260507174546 87 360 7.0 13.0 0.00 0.00 0.00 12 977.0
20260507174048 87 360 4.0 13.0 0.00 0.00 0.00 10 977.1
20260507173544 87 360 4.0 13.0 0.00 0.00 0.00 11 977.2
20260507173048 86 360 8.0 13.0 0.00 0.00 0.00 10 977.3
20260507172544 86 360 5.0 11.0 0.00 0.00 0.00 10 977.3
20260507172044 85 360 3.0 11.0 0.00 0.00 0.00 10 977.5
20260507171600 85 360 5.0 11.0 0.00 0.00 0.00 12 977.6
20260507171044 85 360 6.0 13.0 0.00 0.00 0.00 12 977.7
20260507170545 86 360 3.0 10.0 0.00 0.00 0.00 14 977.7
20260507170045 86 360 5.0 10.0 0.00 0.00 0.00 16 977.7
20260507165545 85 360 0.0 10.0 0.00 0.00 0.00 15 977.5
20260507165045 85 360 6.0 10.0 0.00 0.00 0.00 15 977.7
20260507164549 84 360 3.0 10.0 0.00 0.00 0.00 15 977.8
20260507164044 84 360 5.0 12.0 0.00 0.00 0.00 16 977.7
20260507163545 83 360 3.0 12.0 0.00 0.00 0.00 18 977.8
20260507163049 83 360 4.0 9.0 0.00 0.00 0.00 20 977.9
20260507162544 83 360 3.0 8.0 0.00 0.00 0.00 21 977.8
20260507162045 82 360 3.0 9.0 0.00 0.00 0.00 21 977.9
20260507161545 82 360 4.0 9.0 0.00 0.00 0.00 21 977.9
20260507161044 80 360 0.0 4.0 0.00 0.00 0.00 23 977.9
20260507160543 80 360 2.0 5.0 0.00 0.00 0.00 25 978.1
20260507160051 79 360 1.0 6.0 0.00 0.00 0.00 26 978.0
20260507155544 79 360 3.0 6.0 0.00 0.00 0.00 25 978.1
20260507155044 79 360 4.0 6.0 0.00 0.00 0.00 24 978.1
20260507154544 78 360 3.0 5.0 0.00 0.00 0.00 24 978.1
20260507154045 79 360 3.0 8.0 0.00 0.00 0.00 27 978.1
20260507153545 78 360 3.0 8.0 0.00 0.00 0.00 25 978.2
20260507153046 78 360 0.0 0.0 0.00 0.00 0.00 27 978.2
20260507152544 78 360 0.0 1.0 0.00 0.00 0.00 27 978.2
20260507152044 77 31 0.0 1.0 0.00 0.00 0.00 28 978.2
20260507151548 76 360 0.0 2.0 0.00 0.00 0.00 29 978.1
20260507151044 76 360 0.0 2.0 0.00 0.00 0.00 29 978.1
20260507150544 75 360 0.0 3.0 0.00 0.00 0.00 30 978.1
20260507150044 74 360 1.0 4.0 0.00 0.00 0.00 31 978.1
20260507145544 74 360 2.0 4.0 0.00 0.00 0.00 30 978.1
20260507145044 74 360 1.0 3.0 0.00 0.00 0.00 30 978.0
20260507144546 74 360 1.0 4.0 0.00 0.00 0.00 30 978.3
20260507144044 74 360 2.0 5.0 0.00 0.00 0.00 29 978.3
20260507143544 74 360 3.0 5.0 0.00 0.00 0.00 29 978.2
20260507143049 74 360 2.0 3.0 0.00 0.00 0.00 31 978.2
20260507142545 73 360 1.0 3.0 0.00 0.00 0.00 27 978.2
20260507142044 73 360 2.0 4.0 0.00 0.00 0.00 27 978.1
20260507141546 73 360 2.0 4.0 0.00 0.00 0.00 27 978.1
20260507141044 72 360 1.0 2.0 0.00 0.00 0.00 27 978.0
20260507140545 72 360 1.0 4.0 0.00 0.00 0.00 28 978.0
20260507140055 71 360 2.0 4.0 0.00 0.00 0.00 28 978.0
20260507135544 71 360 2.0 4.0 0.00 0.00 0.00 28 978.0
20260507135044 70 360 0.0 5.0 0.00 0.00 0.00 29 978.0
20260507134544 69 360 2.0 5.0 0.00 0.00 0.00 29 978.0
20260507134044 69 360 3.0 4.0 0.00 0.00 0.00 29 977.9
20260507133544 69 360 3.0 6.0 0.00 0.00 0.00 28 977.9
20260507133044 69 360 4.0 6.0 0.00 0.00 0.00 29 977.9
20260507132544 69 360 0.0 1.0 0.00 0.00 0.00 29 977.8
20260507132044 68 360 0.0 0.0 0.00 0.00 0.00 30 977.8
20260507131546 68 360 0.0 2.0 0.00 0.00 0.00 30 977.7
20260507131044 68 360 1.0 2.0 0.00 0.00 0.00 30 977.8
20260507130544 68 360 1.0 5.0 0.00 0.00 0.00 30 977.8
20260507130058 69 360 1.0 5.0 0.00 0.00 0.00 30 977.7
20260507125544 69 360 2.0 4.0 0.00 0.00 0.00 30 977.7
20260507125044 69 360 0.0 0.0 0.00 0.00 0.00 30 977.7
20260507124559 69 360 0.0 0.0 0.00 0.00 0.00 30 977.6
20260507124044 69 360 0.0 0.0 0.00 0.00 0.00 30 977.7
20260507123544 69 360 0.0 0.0 0.00 0.00 0.00 30 977.7
20260507123044 69 360 0.0 0.0 0.00 0.00 0.00 30 977.6
20260507122545 69 360 0.0 1.0 0.00 0.00 0.00 30 977.7
20260507122044 69 360 0.0 5.0 0.00 0.00 0.00 30 977.7
20260507121545 69 360 1.0 5.0 0.00 0.00 0.00 30 977.7
20260507121043 69 360 2.0 5.0 0.00 0.00 0.00 30 977.6
20260507120544 69 360 3.0 5.0 0.00 0.00 0.00 30 977.5
20260507120044 69 360 1.0 5.0 0.00 0.00 0.00 30 977.6
20260507115545 69 360 2.0 5.0 0.00 0.00 0.00 30 977.6
20260507115043 69 360 2.0 4.0 0.00 0.00 0.00 31 977.6
20260507114605 69 360 2.0 6.0 0.00 0.00 0.00 30 977.7
20260507114045 69 360 4.0 6.0 0.00 0.00 0.00 30 977.7
20260507113545 69 360 3.0 6.0 0.00 0.00 0.00 30 977.6
20260507113044 68 360 4.0 6.0 0.00 0.00 0.00 30 977.7
20260507112545 68 360 3.0 5.0 0.00 0.00 0.00 30 977.8
20260507112047 69 360 2.0 4.0 0.00 0.00 0.00 29 977.7
20260507111544 69 360 3.0 6.0 0.00 0.00 0.00 30 977.7
20260507111045 69 360 2.0 6.0 0.00 0.00 0.00 30 977.7
20260507110544 69 360 2.0 3.0 0.00 0.00 0.00 28 977.7
20260507110047 69 360 0.0 3.0 0.00 0.00 0.00 29 977.8
20260507105543 69 360 1.0 2.0 0.00 0.00 0.00 29 977.8
20260507105044 68 360 1.0 3.0 0.00 0.00 0.00 30 978.0
20260507104551 68 360 2.0 3.0 0.00 0.00 0.00 30 977.9
20260507104044 67 360 1.0 3.0 0.00 0.00 0.00 31 978.0
20260507103545 67 360 0.0 3.0 0.00 0.00 0.00 32 978.0
20260507103044 67 360 1.0 3.0 0.00 0.00 0.00 32 977.9
20260507102545 67 360 0.0 3.0 0.00 0.00 0.00 33 978.1
20260507102044 67 360 1.0 3.0 0.00 0.00 0.00 33 978.0
20260507101548 67 360 0.0 4.0 0.00 0.00 0.00 32 978.1
20260507101043 67 360 1.0 3.0 0.00 0.00 0.00 32 978.1
20260507100544 68 360 1.0 4.0 0.00 0.00 0.00 32 978.0
20260507100046 68 360 1.0 4.0 0.00 0.00 0.00 31 978.1
20260507095544 68 360 2.0 4.0 0.00 0.00 0.00 32 978.1
20260507095043 68 360 1.0 8.0 0.00 0.00 0.00 32 978.1
20260507094545 69 360 3.0 9.0 0.00 0.00 0.00 31 978.2
20260507094048 69 360 5.0 10.0 0.00 0.00 0.00 30 978.1
20260507093547 69 360 3.0 6.0 0.00 0.00 0.00 29 978.1
20260507093045 69 360 2.0 5.0 0.00 0.00 0.00 29 977.9
20260507092544 69 360 3.0 6.0 0.00 0.00 0.00 30 977.9
20260507092044 69 360 3.0 8.0 0.00 0.00 0.00 30 977.9
20260507091545 69 360 4.0 8.0 0.00 0.00 0.00 31 977.9
20260507091044 69 360 5.0 10.0 0.00 0.00 0.00 31 977.9
20260507090544 69 360 5.0 10.0 0.00 0.00 0.00 32 978.0
20260507090045 69 360 4.0 6.0 0.00 0.00 0.00 31 977.9
20260507085546 70 360 3.0 6.0 0.00 0.00 0.00 33 978.0
20260507085044 70 360 4.0 6.0 0.00 0.00 0.00 32 978.1
20260507084544 71 360 3.0 6.0 0.00 0.00 0.00 32 978.1
20260507084044 71 360 2.0 6.0 0.00 0.00 0.00 31 978.1
20260507083546 72 360 3.0 6.0 0.00 0.00 0.00 29 978.1
20260507083044 73 360 4.0 6.0 0.00 0.00 0.00 29 978.0
20260507082544 75 360 3.0 6.0 0.00 0.00 0.00 26 978.0
20260507082044 76 360 3.0 10.0 0.00 0.00 0.00 24 978.0
20260507081544 76 360 2.0 11.0 0.00 0.00 0.00 24 978.0
20260507081044 76 360 6.0 11.0 0.00 0.00 0.00 21 978.1
20260507080544 76 360 5.0 10.0 0.00 0.00 0.00 21 978.1
20260507080044 76 360 4.0 10.0 0.00 0.00 0.00 21 978.2
20260507075544 76 360 5.0 10.0 0.00 0.00 0.00 21 978.2
20260507075046 76 360 4.0 10.0 0.00 0.00 0.00 21 978.2
20260507074559 76 360 4.0 10.0 0.00 0.00 0.00 21 978.2
20260507074044 76 360 6.0 12.0 0.00 0.00 0.00 21 978.2
20260507073548 76 360 5.0 12.0 0.00 0.00 0.00 21 978.2
20260507073047 75 360 6.0 11.0 0.00 0.00 0.00 22 978.3
20260507072544 75 360 3.0 8.0 0.00 0.00 0.00 24 978.3
20260507072043 75 360 3.0 9.0 0.00 0.00 0.00 23 978.3
20260507071550 75 360 4.0 9.0 0.00 0.00 0.00 24 978.3
20260507071044 75 360 5.0 9.0 0.00 0.00 0.00 23 978.3
20260507070544 76 360 5.0 9.0 0.00 0.00 0.00 23 978.3
20260507070059 77 360 4.0 12.0 0.00 0.00 0.00 22 978.3
20260507065544 77 360 6.0 12.0 0.00 0.00 0.00 20 978.3
20260507065045 77 360 8.0 11.0 0.00 0.00 0.00 20 978.3
20260507064544 78 360 6.0 12.0 0.00 0.00 0.00 20 978.3
20260507064044 78 360 6.0 12.0 0.00 0.00 0.00 20 978.3
20260507063545 78 360 6.0 12.0 0.00 0.00 0.00 20 978.4
20260507063055 78 360 6.0 11.0 0.00 0.00 0.00 20 978.4
20260507062544 78 360 5.0 10.0 0.00 0.00 0.00 20 978.4
20260507062044 78 360 6.0 11.0 0.00 0.00 0.00 20 978.3
20260507061547 78 360 6.0 13.0 0.00 0.00 0.00 20 978.3
20260507061043 78 360 7.0 13.0 0.00 0.00 0.00 20 978.3
20260507060547 78 360 6.0 11.0 0.00 0.00 0.00 20 978.3
20260507060046 78 360 6.0 11.0 0.00 0.00 0.00 20 978.4
20260507055545 78 360 6.0 12.0 0.00 0.00 0.00 20 978.4
20260507055044 79 360 6.0 11.0 0.00 0.00 0.00 20 978.3
20260507054545 79 360 6.0 12.0 0.00 0.00 0.00 20 978.3
20260507054045 79 360 7.0 12.0 0.00 0.00 0.00 20 978.3
20260507053544 79 360 6.0 10.0 0.00 0.00 0.00 20 978.3
20260507053044 78 360 7.0 11.0 0.00 0.00 0.00 20 978.3
20260507052548 78 360 5.0 11.0 0.00 0.00 0.00 20 978.3
20260507052044 79 360 7.0 10.0 0.00 0.00 0.00 20 978.3
20260507051544 79 360 5.0 9.0 0.00 0.00 0.00 20 978.2
20260507051043 79 360 4.0 11.0 0.00 0.00 0.00 20 978.2
20260507050544 79 360 4.0 11.0 0.00 0.00 0.00 20 978.1
20260507050044 79 360 3.0 9.0 0.00 0.00 0.00 20 978.1
20260507045544 79 360 4.0 9.0 0.00 0.00 0.00 20 978.1
20260507045044 79 360 6.0 9.0 0.00 0.00 0.00 20 978.0
20260507044545 79 360 6.0 9.0 0.00 0.00 0.00 20 978.1
20260507044047 79 360 4.0 9.0 0.00 0.00 0.00 20 978.1
20260507043544 79 360 4.0 8.0 0.00 0.00 0.00 20 978.1
20260507043044 79 360 3.0 8.0 0.00 0.00 0.00 20 978.0
20260507042544 79 360 3.0 9.0 0.00 0.00 0.00 20 978.0
20260507042044 80 360 5.0 10.0 0.00 0.00 0.00 20 977.9
20260507041544 80 360 6.0 10.0 0.00 0.00 0.00 20 977.9
20260507041044 80 360 4.0 11.0 0.00 0.00 0.00 20 977.9
20260507040546 80 360 6.0 12.0 0.00 0.00 0.00 20 977.9
20260507040044 80 360 7.0 12.0 0.00 0.00 0.00 20 977.9
20260507035544 80 360 7.0 12.0 0.00 0.00 0.00 20 977.7
20260507035045 80 360 6.0 10.0 0.00 0.00 0.00 19 977.7
20260507034544 80 360 4.0 10.0 0.00 0.00 0.00 19 977.6
20260507034044 80 360 4.0 10.0 0.00 0.00 0.00 19 977.5
20260507033544 80 360 5.0 8.0 0.00 0.00 0.00 19 977.4
20260507033046 81 360 4.0 8.0 0.00 0.00 0.00 19 977.4